Powrót do katalogu

GHGSAT-C7

AktywnyNaukaSSO
NORAD 56209·PAYLOAD·🇨🇦 Canada

Wystrzelony Apr 15, 2023 z Vandenberg Space Force Base

Loading…

Następne Przeloty (najbliższe 24 godziny)

TLE

ŚwieżeSource: Space-Track

Epoka: Sep 14, 2026, 13:37 UTC

1 56209U 23054AH  26257.56746841  .00009059  00000-0  15435-3 0  9993
2 56209  97.2911 167.1325 0008948  78.8549 281.3709 15.51565179192241

Śledź GHGSAT-C7 w czasie rzeczywistym z AllMySat

Download on the App Store